GEFSCGP_500_meanwind_102.txt.gz
Wind_Speed
8 8 7 5 9 12 13 14 15 14 18 22 21 21 22 24 24 25 27 28 28 29 30 31 31 32 33 34 35 35 35 34 33 33 32 30 29 28 27 27 26 26 25 24
7 7 7 11 15 16 15 14 13 14 19 23 23 22 22 23 24 25 26 27 28 28 28 30 31 31 33 34 35 36 36 35 34 34 33 32 30 29 27 26 27 27 26 26
8 7 12 15 14 13 12 12 14 15 18 20 21 21 21 23 23 25 25 25 26 26 27 28 30 31 33 34 35 37 36 35 34 33 32 32 31 30 29 28 29 29 28 28
11 12 15 14 12 12 12 13 16 16 17 18 19 20 20 23 23 23 23 23 24 23 26 28 29 31 32 33 34 35 35 34 34 33 33 33 32 31 30 29 29 28 28 28
9 11 13 12 11 13 13 14 15 16 17 17 18 20 19 22 22 22 21 21 22 22 25 26 28 29 31 31 32 34 34 33 33 32 33 32 32 32 31 30 29 29 28 29
9 10 11 11 12 13 13 13 14 14 16 18 17 20 20 23 23 22 21 21 21 22 24 24 25 26 28 28 30 31 31 31 32 32 33 33 32 31 31 30 30 28 29 29
7 10 12 13 12 12 12 12 13 15 18 19 18 18 18 19 19 21 22 22 21 21 22 22 24 24 26 27 27 28 30 31 31 32 33 33 33 32 31 31 30 29 29 29
9 12 13 13 12 12 12 11 14 17 18 20 20 18 18 20 20 20 22 22 22 22 22 22 24 24 25 27 28 29 29 31 31 32 32 32 32 32 30 30 30 30 30 30
11 12 12 13 11 12 12 12 13 17 17 17 18 19 19 18 20 20 21 22 22 23 23 23 23 24 25 26 27 28 29 30 31 31 32 32 31 31 30 29 29 29 29 28
15 14 12 12 11 12 12 12 14 14 16 17 17 19 22 20 19 19 21 22 23 24 23 23 24 25 25 26 27 28 29 30 31 31 31 31 31 30 30 29 28 28 27 27
15 15 12 11 11 12 12 13 14 14 15 17 19 21 23 23 23 21 21 21 22 22 22 23 24 25 25 26 26 28 29 29 30 30 30 30 30 29 29 29 28 28 28 28
15 15 14 13 14 14 13 12 13 15 16 17 20 23 23 24 23 21 20 21 22 22 22 23 24 24 25 25 26 26 27 28 28 28 29 29 29 29 29 29 29 29 29 29
15 15 14 13 14 14 14 11 11 14 16 16 19 22 21 22 20 19 20 21 22 22 21 21 21 23 24 25 25 25 25 26 26 26 27 27 27 27 27 28 28 28 28 28
15 15 15 14 13 13 10 10 11 14 16 18 19 20 22 22 21 21 22 22 22 21 21 20 19 20 21 22 23 23 24 25 26 26 26 26 26 26 26 26 26 26 27 27
16 15 15 14 13 12 12 12 14 16 17 19 19 19 21 20 20 21 22 21 21 21 21 20 20 20 20 20 20 22 23 23 22 23 24 24 24 24 25 24 24 25 26 26
15 15 14 13 12 12 12 13 15 15 16 18 19 20 20 21 21 22 21 20 20 20 20 20 19 19 19 19 19 20 20 21 20 19 19 20 22 22 22 23 23 23 23 23
16 15 13 12 11 11 12 13 14 15 17 18 19 19 20 20 21 21 20 20 20 19 18 17 17 17 17 17 17 18 19 19 19 18 18 19 19 20 20 21 22 23 23 23
15 13 12 10 10 11 11 11 13 15 16 17 17 18 19 19 19 19 19 19 19 18 17 17 17 17 17 17 17 18 18 18 17 17 18 18 19 19 20 20 21 21 21 21
14 13 12 11 10 10 11 13 13 15 16 16 16 17 18 18 19 19 18 18 18 17 17 17 17 17 17 17 17 16 15 15 15 15 15 15 16 16 17 18 19 20 20 20
13 13 13 12 11 12 11 14 15 15 16 16 16 17 17 17 18 18 18 17 17 17 16 15 14 14 14 14 13 13 13 13 13 14 13 13 13 14 14 15 16 17 17 18
13 12 13 13 12 13 13 13 14 14 15 16 16 16 16 16 17 17 17 16 15 15 15 14 13 12 12 12 12 12 11 11 11 11 11 12 12 12 13 13 14 14 14 15
13 13 13 12 12 13 12 13 14 14 15 15 15 15 15 16 16 16 16 15 14 13 12 11 11 10 10 11 11 11 11 10 10 10 10 10 11 11 11 12 12 13 13 14
13 13 13 13 12 11 12 13 13 14 14 14 14 15 14 14 14 14 14 13 12 11 10 10 9 8 8 8 9 9 9 9 9 9 9 10 10 10 10 11 11 12 12 13
14 14 13 12 11 11 12 11 12 12 13 13 13 13 13 13 13 13 12 12 11 10 9 9 8 7 6 6 6 6 7 7 7 8 8 8 9 9 9 9 9 10 10 10
13 12 11 10 10 9 10 10 11 11 12 12 12 12 12 12 12 12 12 11 10 9 8 8 7 6 6 6 6 5 5 5 6 6 7 7 7 7 7 7 7 8 8 9
12 10 9 8 8 9 9 9 9 10 10 10 11 11 11 11 11 11 11 10 9 8 8 8 7 6 6 6 5 5 5 5 5 5 5 5 5 5 5 6 6 7 7 7

GEFSCGP_500_meanwind_108.txt.gz
Wind_Speed
12 12 11 11 11 12 12 10 9 8 10 12 14 15 18 20 21 23 23 23 23 25 26 27 28 29 30 31 31 31 29 29 29 28 28 28 27 27 28 27 25 24 25 24
13 13 12 12 12 12 11 10 10 10 12 14 17 18 19 21 22 23 24 25 25 25 25 26 27 27 28 29 30 30 30 29 30 30 29 29 28 29 29 27 27 27 25 23
14 15 14 13 12 10 10 11 12 13 14 16 19 20 21 23 24 24 24 25 24 24 25 25 25 27 28 28 28 28 29 31 31 31 30 30 29 28 28 27 28 27 26 25
14 15 15 12 10 10 11 13 15 16 17 18 20 22 22 23 24 23 24 24 24 24 25 26 25 27 27 27 28 28 29 30 30 30 30 30 30 29 29 28 28 28 27 26
14 15 14 12 10 11 13 14 16 17 18 20 21 23 22 23 23 23 24 25 24 24 25 26 26 27 26 26 27 28 28 29 29 29 30 30 29 28 29 29 28 28 27 25
13 14 14 13 12 12 14 15 16 16 17 18 19 22 23 22 22 21 22 24 24 23 24 25 25 25 25 26 26 27 27 28 28 29 29 29 30 29 29 28 28 27 26 25
13 14 14 13 11 11 13 14 15 15 15 15 17 19 20 21 21 21 21 21 20 20 22 23 24 24 24 24 25 26 26 26 26 27 28 29 28 28 29 29 28 27 26 26
13 13 13 12 11 11 12 13 13 14 15 15 16 16 17 17 17 18 19 19 19 19 21 22 23 24 24 24 24 25 25 26 27 27 27 28 28 28 29 28 28 28 27 26
13 12 12 12 12 12 12 13 13 15 15 16 16 16 17 17 18 19 19 17 18 19 20 21 22 23 23 24 24 24 24 24 25 25 26 26 26 27 28 28 28 28 27 26
13 13 13 14 14 14 14 15 15 15 17 17 16 17 18 18 18 18 19 18 19 19 19 21 22 23 23 23 24 24 24 24 24 24 23 24 24 25 25 26 26 27 27 27
13 13 13 14 14 14 16 17 16 16 17 17 18 18 18 19 19 20 19 18 18 19 20 21 21 21 22 23 23 24 24 24 24 24 23 23 23 23 23 23 24 25 26 27
15 14 14 14 14 14 16 17 16 17 18 18 19 18 16 19 20 20 19 19 19 20 20 21 21 20 21 22 23 23 23 23 23 23 23 23 22 23 23 23 24 24 25 26
15 15 14 14 15 15 16 15 16 18 17 17 18 19 18 19 20 19 19 19 19 20 21 21 21 20 21 21 21 22 22 21 21 21 22 22 23 23 23 22 22 23 24 24
15 15 14 14 14 15 16 17 17 17 17 17 17 18 18 19 19 18 19 19 20 20 20 20 20 20 21 21 20 20 19 19 18 19 20 21 21 22 22 22 22 22 22 23
16 15 14 13 13 14 15 16 17 16 16 17 17 17 18 18 19 20 20 20 21 21 21 20 20 20 20 20 19 18 18 18 17 18 18 18 19 19 20 19 20 20 21 21
16 16 15 14 15 15 15 15 15 15 15 17 17 17 18 19 19 20 21 21 21 21 21 20 20 19 19 18 17 16 16 16 16 16 15 16 16 17 18 18 18 19 19 19
16 16 16 14 14 15 15 15 15 15 15 15 16 16 17 18 19 20 20 21 21 21 20 19 18 18 17 16 16 15 15 14 14 14 13 14 14 15 15 15 16 16 16 16
17 17 15 14 14 15 14 13 13 13 14 15 16 17 17 18 18 19 20 20 20 19 19 17 17 16 16 15 14 14 13 13 12 12 11 11 12 12 12 12 13 14 15 15
16 15 15 13 13 13 12 12 12 12 13 14 15 15 16 17 18 18 19 19 18 18 17 16 15 15 14 13 13 12 12 12 11 11 10 11 11 11 11 12 12 13 13 13
16 15 14 13 13 12 10 10 11 12 12 14 15 15 16 17 17 18 18 18 17 15 14 14 14 14 12 11 10 10 10 10 9 9 9 9 10 10 10 11 11 11 12 12
15 13 13 12 12 9 9 9 10 11 12 13 14 15 15 16 17 18 17 16 15 14 13 13 13 12 10 9 8 7 7 7 7 7 7 8 8 8 8 9 10 9 10 10
15 13 13 12 10 8 8 8 9 10 11 12 13 14 14 15 16 16 16 15 14 12 12 12 10 9 8 7 7 6 5 5 5 5 5 6 6 6 6 6 7 7 8 8
13 13 11 11 9 7 7 7 8 9 10 11 11 12 13 14 15 15 14 14 12 11 10 9 8 7 6 5 5 5 4 4 4 3 3 4 4 4 3 4 4 4 5 5
13 12 11 10 7 6 6 7 8 8 9 9 10 11 12 13 13 12 13 12 11 10 8 7 7 6 5 5 4 3 3 3 3 2 3 2 2 2 2 1 1 1 2 3
12 12 11 9 7 6 6 6 6 7 8 9 10 10 11 11 11 11 12 11 10 9 8 7 6 6 6 5 4 4 4 3 3 2 2 2 2 1 1 2 2 2 2 2
12 10 10 8 7 5 4 4 4 6 7 8 8 9 9 9 10 10 11 10 10 9 8 8 7 7 7 6 6 6 5 5 4 4 4 4 4 4 4 4 4 3 3 3

GEFSCGP_500_meanwind_114.txt.gz
Wind_Speed
14 15 15 16 17 17 17 17 18 18 19 18 18 18 18 18 17 17 18 18 18 19 19 21 22 24 25 25 25 24 24 24 25 25 24 24 25 26 26 27 27 27 27 28
15 16 16 16 17 17 17 17 17 18 19 18 18 18 18 18 18 18 18 18 18 19 20 21 22 22 23 23 24 24 24 24 24 25 25 25 26 26 27 28 29 29 29 29
16 16 16 16 16 16 16 16 17 18 19 18 18 18 18 19 19 19 19 20 20 21 22 23 23 23 24 24 24 24 24 24 25 25 25 25 26 27 28 28 28 30 30 29
16 16 15 15 15 15 15 16 17 18 18 17 18 19 18 18 19 20 21 21 20 21 23 24 24 24 25 25 26 26 26 24 24 25 25 26 26 26 27 28 28 30 30 30
15 15 15 15 15 15 16 16 16 17 17 18 18 19 18 19 20 20 21 22 22 22 23 23 24 24 25 25 25 25 25 25 25 25 25 26 27 27 27 28 28 29 29 29
15 15 14 14 15 15 15 16 16 16 17 17 18 19 19 20 21 21 22 23 23 23 23 24 24 24 24 24 23 23 23 24 25 25 25 26 26 26 26 26 26 27 28 27
15 15 15 15 15 15 15 15 15 16 17 17 18 18 19 20 21 21 22 22 23 23 23 24 23 24 23 23 23 23 23 23 24 25 24 25 25 25 24 24 24 24 25 26
14 14 14 15 14 14 14 15 15 16 17 17 17 17 17 18 19 20 20 21 22 22 23 23 24 24 23 23 22 23 23 23 24 25 25 25 25 24 24 24 24 24 25 25
14 14 14 14 14 15 15 16 16 16 16 16 16 15 16 17 17 18 18 20 21 21 21 22 22 23 23 23 23 24 24 25 25 26 26 26 26 25 25 25 25 25 25 26
14 14 14 14 14 15 16 16 16 16 17 16 15 15 15 15 15 16 18 19 20 20 20 21 21 22 23 23 23 23 23 24 25 26 27 27 27 27 26 25 25 26 26 26
13 13 13 14 15 16 16 16 16 16 17 17 16 15 15 15 16 17 18 19 19 20 21 21 21 22 22 22 22 23 24 24 25 26 27 27 28 27 26 26 26 26 25 25
14 14 13 14 15 15 15 16 15 16 16 17 17 15 15 16 18 19 18 18 19 20 21 21 21 21 21 22 22 23 24 24 25 25 26 26 26 27 27 26 26 26 25 25
15 15 15 14 14 15 16 15 15 16 16 17 16 16 16 17 19 18 18 19 20 21 21 21 22 22 22 23 23 23 23 24 24 24 24 24 24 24 25 25 25 25 25 26
17 16 16 15 14 14 14 15 16 16 17 17 16 16 17 18 19 18 18 20 21 22 23 23 23 23 23 23 23 23 23 22 22 22 21 21 21 21 22 22 23 24 24 25
18 18 17 16 15 15 14 15 15 16 17 17 17 17 17 18 18 18 19 21 22 23 23 23 23 24 24 24 23 23 22 21 20 19 19 19 19 19 19 20 21 22 22 22
17 18 17 17 16 15 14 15 15 15 16 16 16 16 16 17 18 19 20 21 22 23 23 23 23 24 23 23 22 21 21 20 19 19 18 17 17 17 18 18 19 19 19 20
17 16 16 16 15 15 15 15 15 15 15 16 16 16 17 18 19 20 21 22 23 22 22 22 22 22 22 21 20 19 18 17 17 16 16 16 16 16 16 17 17 16 16 17
17 16 16 15 14 14 13 14 14 13 14 16 16 17 17 18 19 20 21 22 22 22 21 21 20 21 20 19 18 18 17 15 15 15 14 14 15 15 15 14 14 15 15 16
16 15 14 14 14 13 13 13 13 13 14 15 15 16 17 18 19 20 21 21 21 20 20 19 19 19 18 17 16 15 14 13 13 12 12 13 13 13 13 13 12 12 12 12
15 15 14 14 13 13 12 13 13 13 13 14 15 16 17 18 19 20 20 20 19 18 18 18 18 16 15 14 14 12 12 11 11 10 10 10 10 11 11 11 11 11 11 10
13 13 13 13 13 13 12 12 12 12 12 13 14 15 17 18 18 18 18 18 17 17 17 17 16 14 12 12 11 10 9 9 9 8 8 8 8 8 8 8 8 9 9 9
11 11 12 13 13 12 12 12 11 11 12 12 14 15 16 16 16 17 16 16 16 15 15 14 12 11 10 9 9 8 8 8 7 7 7 7 6 6 6 6 7 7 7 7
11 11 11 12 12 12 12 12 12 12 12 13 14 15 15 16 16 16 15 14 13 13 12 11 10 9 8 7 6 6 6 5 5 4 4 4 5 4 4 3 3 3 3 4
10 10 10 10 10 11 11 10 10 11 11 12 13 14 14 15 14 13 13 12 11 11 10 9 9 8 6 5 5 4 4 4 4 4 3 3 2 2 1 1 1 1 2 1
9 9 9 9 9 9 9 9 9 9 10 11 12 12 12 12 12 11 11 10 10 10 9 8 7 6 5 5 5 5 4 4 5 5 5 5 4 4 4 4 4 3 3 3
9 10 10 9 9 9 8 8 7 8 9 10 10 10 10 10 10 9 9 9 9 8 7 7 6 6 6 6 6 6 6 7 7 7 7 7 7 7 7 7 6 6 6 5

GEFSCGP_500_meanwind_120.txt.gz
Wind_Speed
10 11 12 13 14 15 15 14 15 17 16 16 17 18 18 18 18 19 19 20 21 20 20 21 21 21 23 23 23 24 24 24 24 25 25 25 26 26 27 27 28 29 29 28
10 11 12 12 12 12 12 13 14 15 15 15 15 16 17 17 18 18 18 18 19 19 19 20 20 21 22 22 23 24 25 26 26 26 26 26 27 27 28 28 29 28 28 29
10 11 10 10 10 11 11 12 14 14 14 14 14 15 16 16 16 17 17 17 18 19 20 20 20 20 21 22 22 23 24 26 26 26 26 26 27 27 28 29 29 29 29 29
10 9 9 9 10 10 11 12 14 14 12 13 12 12 16 15 16 16 17 17 18 19 20 20 21 21 22 22 23 24 24 25 25 26 26 26 27 28 28 29 29 29 30 30
9 9 9 10 10 10 11 11 12 13 12 13 13 11 15 16 17 18 19 19 19 20 21 21 22 22 22 23 23 24 24 25 26 26 27 27 27 28 28 29 28 28 29 30
8 9 10 10 10 10 10 10 11 11 11 12 12 11 13 15 17 17 18 19 20 21 21 21 21 22 23 24 24 25 25 25 26 26 27 27 27 28 28 28 28 28 29 30
8 9 10 10 10 10 10 8 7 8 9 11 13 12 13 15 16 17 18 19 19 21 21 22 22 23 24 25 26 26 27 26 26 26 27 27 28 28 28 29 29 29 29 29
8 9 10 11 11 11 10 9 9 10 10 11 14 13 15 15 16 17 17 18 19 20 22 22 23 24 25 25 26 26 27 27 27 27 28 28 29 29 29 29 30 29 29 29
10 12 11 11 11 12 11 11 11 11 11 11 13 15 16 16 17 17 18 18 18 19 21 22 23 23 24 24 25 25 26 27 28 29 29 28 29 29 29 30 30 31 31 31
11 12 12 11 12 12 13 13 12 11 12 12 13 15 15 15 16 17 17 17 18 19 20 21 21 22 23 24 24 25 26 26 27 28 28 28 29 30 30 30 30 30 31 30
12 12 12 12 12 13 13 14 14 13 13 12 12 14 15 15 16 16 17 18 19 20 21 21 22 22 22 23 24 24 25 26 27 27 28 28 28 29 29 30 30 30 30 29
13 12 12 13 13 13 14 14 13 13 13 13 13 15 17 16 17 17 18 19 20 21 21 21 22 22 23 23 24 24 25 25 26 26 26 26 26 27 28 28 28 28 28 28
14 13 12 13 13 14 14 13 14 14 14 14 14 16 18 17 18 18 19 20 21 21 22 22 22 23 23 23 23 24 24 25 24 25 25 25 25 25 26 26 26 26 26 26
15 14 13 13 14 14 14 15 15 14 14 15 16 17 18 18 19 19 20 21 22 22 23 23 23 23 24 24 24 24 24 24 24 24 24 23 23 23 22 22 22 23 24 25
14 15 15 15 15 14 14 15 16 15 15 16 17 18 18 18 19 20 20 20 21 22 23 23 23 23 23 24 24 23 23 23 23 23 22 22 21 21 20 20 20 21 21 23
12 13 14 15 15 15 15 15 15 16 16 16 17 17 18 18 19 20 20 21 22 22 22 22 23 23 23 22 22 22 22 21 21 21 20 20 19 19 18 18 19 19 19 19
12 12 13 13 13 13 14 13 13 14 15 16 16 16 17 18 19 19 20 21 22 22 22 22 22 21 21 20 20 19 20 19 19 18 18 17 16 15 15 15 15 16 17 17
11 11 11 11 12 13 12 12 13 13 14 14 15 15 16 17 18 18 19 20 21 21 21 21 21 20 19 18 18 18 18 17 17 16 16 15 14 13 13 12 12 12 13 13
10 10 10 10 11 13 13 12 12 12 13 13 14 15 16 17 17 18 19 20 20 20 20 20 19 18 17 16 16 16 15 15 14 14 13 12 12 11 10 10 10 9 10 10
9 9 10 10 10 12 13 13 12 11 13 13 14 15 15 16 17 18 18 19 19 19 19 19 17 16 16 15 14 13 12 12 12 11 11 10 9 9 8 8 8 8 7 7
7 8 9 10 11 13 13 12 11 11 12 13 14 14 15 16 16 17 18 19 19 18 18 17 16 15 14 13 11 10 10 10 9 9 8 8 7 7 6 6 5 5 5 5
6 7 8 9 11 12 11 11 11 11 12 13 13 14 14 15 16 17 17 18 18 17 15 14 13 12 10 10 8 8 8 8 7 7 6 6 5 5 4 4 3 3 3 3
7 7 8 9 9 10 9 10 10 11 11 12 12 13 14 15 16 16 16 17 16 14 13 12 11 9 8 7 6 6 5 5 5 5 5 4 2 1 1 1 1 1 1 1
7 7 7 7 8 8 9 9 10 10 11 11 12 13 14 15 15 15 14 14 13 12 10 9 8 7 6 5 4 4 4 4 5 4 4 3 3 3 3 4 4 3 3 4
8 7 6 6 6 7 8 9 9 10 10 11 11 12 13 13 13 13 12 11 11 9 8 7 6 6 5 4 4 4 4 5 5 5 6 6 6 7 7 7 7 7 6 6
7 6 6 6 6 6 7 8 8 9 9 10 10 11 11 12 11 10 10 9 9 8 6 6 6 6 5 5 5 6 6 6 7 8 9 9 9 9 9 9 9 8 8 8

GEFSCGP_500_meanwind_126.txt.gz
Wind_Speed
7 7 7 7 8 9 10 11 13 15 14 13 14 16 18 18 15 16 18 19 18 19 20 20 20 20 22 22 22 22 23 24 25 26 26 27 28 28 29 29 29 30 30 30
5 4 6 9 11 12 13 12 13 14 15 15 14 16 17 18 16 17 18 18 19 20 20 20 21 21 22 22 23 24 25 26 26 27 27 27 28 29 30 30 30 31 31 31
7 5 9 11 12 14 14 14 14 15 15 14 13 16 18 19 16 16 17 19 20 20 20 21 22 22 22 23 24 25 25 27 27 28 28 28 29 30 30 31 31 32 32 32
6 8 11 11 11 11 12 13 14 15 14 14 14 17 20 20 19 18 18 20 20 21 21 21 22 23 24 25 25 26 27 28 28 28 29 29 30 31 31 32 32 32 32 31
6 8 10 10 10 11 11 13 16 16 16 16 15 16 21 22 21 19 18 19 20 21 22 22 24 24 25 26 27 28 28 29 29 29 30 30 30 31 31 31 32 32 31 31
7 9 9 9 11 12 11 13 14 15 16 19 17 18 22 22 19 19 17 18 20 21 23 24 25 25 25 26 27 28 29 29 30 30 31 31 31 31 30 31 31 31 31 31
7 8 7 8 9 9 10 10 11 14 18 19 18 20 21 20 18 18 18 18 20 22 23 24 24 24 25 26 27 28 28 29 30 30 30 31 31 30 30 30 31 30 30 30
8 9 8 8 8 9 9 9 12 15 15 14 14 17 17 17 18 19 18 20 21 21 22 23 23 24 25 26 27 28 29 29 30 30 30 30 31 31 30 31 31 31 30 31
8 9 9 9 9 10 10 10 13 14 14 15 13 15 15 18 18 17 18 20 21 21 22 22 23 25 26 26 27 28 29 29 29 29 30 30 30 30 30 31 31 31 31 31
9 9 9 9 8 10 11 12 13 12 14 13 14 17 20 19 16 16 19 20 20 21 23 23 24 25 26 26 27 27 28 28 29 29 29 28 28 29 29 29 30 31 31 31
13 13 11 10 9 11 12 12 14 13 15 15 17 20 20 20 18 18 19 19 21 23 24 24 25 26 27 27 27 27 27 27 28 27 27 28 28 29 29 29 29 29 30 30
13 13 13 13 14 14 14 13 14 15 15 16 18 20 21 21 20 18 20 21 22 24 24 25 26 27 27 27 27 27 26 25 26 26 26 26 26 27 27 27 27 28 28 28
12 13 13 14 15 14 14 13 13 14 15 15 17 21 21 21 22 20 20 22 23 24 24 25 25 26 26 26 26 26 25 25 25 25 25 25 25 25 25 25 26 26 27 26
12 12 13 13 13 13 12 12 13 14 14 16 18 21 22 23 22 23 24 24 25 25 25 25 26 26 25 25 25 24 24 25 24 24 25 25 25 25 25 25 25 25 24 24
12 12 12 13 12 10 9 11 13 15 16 18 19 21 22 23 23 24 24 24 24 25 25 25 24 24 24 23 23 23 23 23 23 23 24 24 24 24 23 23 23 23 22 22
11 11 11 10 10 10 9 12 13 15 18 19 20 22 23 23 23 23 23 22 23 24 24 24 23 23 23 23 22 22 21 21 21 22 22 22 21 21 21 21 21 21 20 21
9 10 10 9 9 11 11 12 14 16 17 18 19 19 20 21 22 23 23 22 22 22 22 23 23 23 22 21 21 20 20 19 19 19 19 19 19 18 18 18 17 17 17 17
8 9 9 10 11 11 10 12 13 15 16 17 17 18 19 20 21 22 23 23 23 23 22 22 21 21 20 20 19 19 18 18 18 18 18 18 17 17 16 15 14 15 15 14
7 8 9 10 11 10 9 11 13 14 14 15 16 16 17 18 20 21 21 22 22 22 22 21 20 19 19 18 17 17 16 16 16 16 16 17 16 14 12 11 11 11 11 11
6 7 8 9 10 10 10 11 13 13 14 15 15 15 17 18 18 19 19 20 21 21 20 19 18 18 17 16 15 15 15 14 14 14 15 15 13 12 10 10 9 9 8 7
6 6 7 8 9 10 11 11 13 14 15 15 15 16 16 17 17 18 19 20 20 19 19 18 17 16 15 14 13 13 13 13 13 13 13 12 10 9 9 8 7 7 6 5
7 7 7 8 8 10 11 11 13 14 15 15 15 16 16 17 18 19 19 18 18 17 16 15 14 13 12 11 11 11 11 11 11 11 10 9 8 7 6 6 5 4 4 4
7 8 8 8 9 10 10 12 13 13 13 14 15 15 16 16 17 18 18 17 16 15 13 12 12 11 10 9 9 9 9 9 9 9 8 8 7 6 5 4 3 3 3 3
8 8 8 9 10 9 10 11 12 12 12 12 13 14 14 14 15 16 16 15 14 12 11 10 10 10 8 8 7 7 7 8 8 7 8 8 7 7 6 4 4 3 4 5
8 8 9 9 9 8 9 10 10 10 11 11 12 12 12 13 14 14 13 13 12 11 10 9 9 8 7 7 6 7 7 7 7 7 7 7 7 7 7 7 6 6 6 6
8 8 9 9 9 8 9 10 10 10 10 10 11 11 12 12 12 12 12 11 10 9 9 8 8 8 7 6 6 6 6 6 7 7 8 8 8 8 8 9 8 8 8 8